Regional Weather Roundup
Issued by NWS New Orleans/Baton Rouge, LA

Home | Current Version | Previous Version | Text Only | Print | Product List | Glossary On
Versions: 1 2 3 4 5 6 7 8 9 10 11 12 13 14 15 16 17 18 19 20 21 22 23 24 25 26 27 28 29 30 31 32 33 34 35 36 37 38 39 40 41 42 43 44 45 46 47 48 49 50
558
ASUS44 KLIX 191113
RWRLIX
NEW ORLEANS REGIONAL WEATHER ROUNDUP
NATIONAL WEATHER SERVICE NEW ORLEANS LA
500 AM CST THU JAN 19 2017

NOTE: "FAIR" INDICATES FEW OR NO CLOUDS BELOW 12,000 FEET WITH NO
      SIGNIFICANT WEATHER AND/OR OBSTRUCTIONS TO VISIBILITY.
      SKY/WX - SKY CONDITION AND SIGNIFICANT WEATHER.
      TMP - AIR TEMPERATURE.     DP    - DEWPOINT TEMPERATURE.
      RH  - RELATIVE HUMIDITY.   PRES  - PRESSURE.
      HI  - HEAT INDEX.          WCI   - WIND CHILL INDEX.

*  THESE STATIONS ARE NOT NWS OR FAA STATIONS AND ARE NOT UNDER
   NWS QUALITY CONTROL.

LAZ038-040-048-061>063-065>067-069-191200-
SOUTHEAST LOUISIANA

CITY           SKY/WX    TMP DP  RH WIND       PRES   REMARKS
N.O. AUDUBON   NOT AVBL
N.O. INTL ARPT CLOUDY    71  69  93 S14       29.93F
N.O. LAKEFRONT CLOUDY    71  70  96 S13       29.94F
N.O. DOWNTOWN*   N/A     72  69  90 S9        29.94F
RESERVE*       CLOUDY    72  70  94 S9        29.91F
SLIDELL        CLOUDY    70  69  97 S10       29.93F
BATON ROUGE    CLOUDY    72  70  93 S9        29.88F
BOOTHVILLE     FOG       68  68 100 S10       29.97F VSB 3/4
BELLE CHASSE   CLOUDY    70  70 100 S10       29.94F
BOGALUSA*      CLOUDY    71  67  89 SE7       29.94F
GALLIANO*      CLOUDY    72  68  88 S12       29.94F
NEW ROADS*     CLOUDY    69  69  99 S8        29.87F
GONZALES*      CLOUDY    71  70  97 S6        29.89F
HAMMOND*       CLOUDY    70  66  88 S10       29.91F
HOUMA*         CLOUDY    71  70  97 S10G18    29.92F
PORT FOURCHON* CLOUDY    70  70 100 S8        29.95S FOG

$$

MSZ070-080>082-191200-
SOUTHERN MISSISSIPPI

CITY           SKY/WX    TMP DP  RH WIND       PRES   REMARKS
MCCOMB         LGT RAIN  69  67  93 SE10      29.90F FOG
GULFPORT       FOG       68  68 100 SE8       29.96S VSB 3/4
BILOXI         NOT AVBL
PASCAGOULA     HVY RAIN  69  67  93 SE6       29.97F VSB 1

$$

COASTAL OBSERVATIONS
LAKE AND NEARSHORE STATIONS

STATION/POSITION TIME  TEMP    WIND        PRES    WAVE
                       AIR SEA DIR/SP/G            HT/PER
                 (UTC) (F)     (DEG/KT/KT) (MB)    (FT/S)
PASCAGOULA       1048   67     140/  7/ 12 1014.6
WAVELAND YACHT   1048   66 65  170/  6/  8 1014.5
GRAND ISLE       1048   69 67  180/  7/ 10 1014.4
SOUTHWEST PASS   1048          150/  8/ 10   N/A
NEW CANAL        1048   72 59  180/  8/ 12 1012.9
SHELL BEACH      1048   69 68  180/ 10/ 13 1014.4

OFFSHORE STATIONS

STATION/POSITION TIME  TEMP    WIND        PRES    WAVE
                       AIR SEA DIR/SP/G            HT/PER
                 (UTC) (F)     (DEG/KT/KT) (MB)    (FT/S)

$$





USA.gov is the U.S. government's official web portal to all federal, state and local government web resources and services.